RH
64 66 68 71 72 75 75 74 74 72 73 74 74 75 76 75 74 81 81 86 93 90 84 84 84 84 70 64 68 68 71 73 71 73 69 69 76 71 69 72 68 73 68
64 68 71 72 73 73 76 73 73 76 75 76 76 77 76 75 76 80 85 91 90 85 85 84 80 60 77 80 72 74 75 71 77 76 72 74 78 73 76 77 59 52 66
62 65 70 74 78 80 79 78 77 76 74 70 75 78 76 76 78 86 90 90 87 83 83 80 75 77 80 78 76 73 73 69 68 69 73 70 71 73 73 77 78 75 56
55 63 68 70 74 74 77 78 77 76 75 74 75 74 74 74 76 89 86 88 83 79 76 73 74 78 82 81 75 80 73 65 70 66 67 66 67 74 76 75 79 77 74
59 62 67 68 69 71 73 73 73 75 72 74 73 73 74 72 64 88 84 84 82 76 71 69 73 69 72 72 63 80 81 68 62 58 63 66 71 75 79 71 73 79 86
57 60 66 69 70 73 73 74 75 75 75 76 75 71 71 64 95 91 85 78 74 71 72 72 68 65 72 72 70 70 73 79 81 70 68 71 82 78 76 77 76 88 78
59 60 66 72 72 75 74 74 76 78 78 78 75 73 78 87 94 93 85 69 68 69 72 70 44 45 68 69 73 68 68 66 69 80 82 82 83 80 86 85 78 86 84
62 62 66 71 72 75 78 78 81 79 80 80 79 77 87 88 96 93 83 75 69 70 71 71 70 76 79 75 75 66 66 65 70 52 76 80 81 78 83 80 82 83 79
60 66 66 70 73 76 79 81 80 81 82 82 78 82 91 93 96 92 80 72 70 73 69 71 73 77 77 78 71 72 77 69 64 69 68 68 73 76 78 72 72 72 78
59 65 68 71 74 76 80 83 82 81 82 70 78 88 96 91 95 92 76 61 72 65 77 76 72 76 79 73 74 78 75 66 65 68 73 73 74 74 78 79 78 80 84
58 64 70 74 78 78 83 83 84 84 81 83 83 91 90 88 88 92 93 64 63 62 60 65 67 80 70 71 73 79 73 74 71 66 64 66 71 70 76 77 81 83 88
64 67 71 75 66 69 84 84 84 85 86 87 92 91 88 86 89 93 89 82 72 62 60 58 72 78 69 62 62 69 73 78 70 63 62 67 67 71 78 80 87 83 82
71 74 74 76 74 76 82 85 81 84 78 86 89 92 88 85 80 91 83 84 81 65 59 64 79 77 71 62 62 71 77 71 66 62 64 69 68 78 78 81 85 88 82
74 77 79 80 79 80 74 75 72 72 69 80 88 92 86 85 77 74 73 71 74 66 73 65 66 66 68 61 62 67 69 65 62 63 62 66 67 78 80 80 84 82 81
73 73 75 71 75 78 73 72 63 65 61 73 75 77 83 82 75 74 71 65 59 63 63 60 63 67 67 65 66 62 60 61 64 67 64 64 66 68 72 72 64 72 78
73 68 65 62 64 65 72 80 99 96 100 93 86 74 74 85 90 86 86 84 75 71 56 56 58 58 58 58 66 63 65 61 62 62 62 61 64 64 70 73 71 72 68
80 64 58 59 55 59 60 62 74 91 100 100 99 94 88 90 86 88 90 81 70 68 54 53 54 55 55 58 59 58 56 63 64 64 61 60 57 58 64 72 73 65 65
90 84 52 48 44 41 46 50 50 65 69 73 92 94 97 95 90 91 86 71 59 61 49 47 53 55 57 59 57 59 62 64 64 62 60 54 54 54 56 64 65 68 64
98 92 73 43 60 37 40 43 41 54 58 73 74 82 87 92 92 88 75 55 49 46 48 44 51 55 60 59 62 67 64 61 59 63 61 59 56 52 55 48 51 63 66
97 98 99 91 79 57 52 51 68 67 72 75 72 71 75 74 82 66 60 60 53 47 45 45 48 54 58 60 69 61 63 64 64 60 59 59 55 49 44 45 45 48 58
96 92 97 94 94 95 89 94 83 87 75 91 80 87 91 76 81 73 62 63 61 56 57 45 37 46 59 62 64 56 56 51 54 55 52 56 57 48 52 50 45 45 46
94 92 92 93 95 95 97 96 91 83 82 78 75 84 99 92 80 71 65 62 67 86 79 64 49 40 41 41 52 50 46 44 47 51 51 48 50 46 44 43 42 44 46
95 89 87 90 94 97 95 95 94 94 94 87 72 75 77 77 76 74 70 72 85 91 96 91 78 49 63 43 46 51 40 41 45 48 45 45 46 44 43 44 40 44 45
68 84 87 88 92 94 95 93 94 98 95 92 94 94 82 78 81 80 72 67 78 88 93 95 86 70 77 74 45 46 42 44 45 42 44 44 41 46 40 42 36 40 42
61 69 74 87 88 76 76 82 79 83 84 87 92 95 97 93 91 87 84 89 90 90 88 92 88 77 59 74 64 42 50 69 52 45 40 42 44 48 39 36 37 40 40
56 62 70 73 75 72 71 73 79 83 88 84 93 96 95 94 95 92 84 81 79 84 89 93 90 79 77 64 72 58 72 74 64 64 38 38 41 40 34 40 42 37 40
Wind_Speed
16 15 13 12 12 10 9 8 5 3 3 3 3 4 5 4 4 4 4 6 7 5 6 5 5 6 6 5 5 5 4 4 4 1 3 2 4 3 3 4 6 7 6
17 14 14 12 12 11 10 9 7 6 5 5 5 4 4 4 4 5 7 6 5 5 7 5 10 7 7 7 4 4 4 3 2 3 3 3 4 5 6 4 4 5 3
16 15 12 12 11 11 10 9 7 6 6 6 5 5 4 3 6 8 8 6 4 9 5 9 8 7 6 4 5 4 5 4 2 4 3 5 5 5 5 4 3 2 5
16 15 14 13 12 11 9 9 8 6 7 6 5 4 3 4 2 10 8 6 7 7 9 8 9 8 7 5 7 7 7 7 6 5 5 6 8 6 5 5 3 1 3
15 15 15 13 12 11 10 9 8 8 8 6 6 5 5 6 4 11 8 9 8 9 10 10 9 12 16 16 6 7 7 7 7 6 5 7 7 7 6 6 7 1 1
15 15 13 12 11 11 9 9 9 9 7 7 6 5 6 6 16 14 11 9 11 9 9 8 8 11 12 13 15 16 10 6 7 5 5 7 8 6 6 7 7 3 2
13 13 13 12 12 11 10 9 9 9 7 6 6 5 6 10 13 11 12 10 10 8 7 7 8 8 8 6 9 11 10 10 9 5 5 5 5 8 7 9 7 2 4
12 13 12 12 12 10 10 9 8 8 8 7 6 5 10 7 10 11 13 10 10 8 6 7 8 6 5 5 6 6 5 4 5 6 5 3 5 9 10 6 8 3 3
11 13 13 13 12 10 11 10 9 8 7 7 6 6 10 9 8 11 11 10 9 7 7 7 6 7 7 9 6 3 5 3 5 9 7 2 8 19 15 9 11 9 6
11 11 11 11 12 11 11 10 9 8 7 7 7 11 12 11 10 10 11 8 8 7 6 7 11 8 7 6 3 6 3 2 4 5 3 3 3 13 17 13 9 8 6
9 9 10 10 10 10 10 9 9 9 8 8 7 9 10 11 10 10 2 10 7 7 6 6 4 8 8 6 8 5 4 2 6 2 5 3 4 8 7 8 9 8 7
9 9 10 10 10 9 11 10 10 9 8 7 10 8 6 9 10 7 6 4 13 8 8 7 6 7 6 5 4 3 6 5 4 5 4 3 3 5 5 6 6 9 9
8 9 10 11 10 10 12 11 10 9 9 9 8 7 7 7 6 9 3 6 10 8 8 12 14 8 5 4 6 2 2 3 2 4 4 1 1 4 7 6 5 10 12
8 9 9 10 10 11 10 9 9 9 9 9 8 7 7 7 8 5 4 7 11 10 16 12 10 7 4 5 3 3 3 1 4 3 3 2 2 4 2 3 3 2 7
7 9 10 9 10 11 7 5 8 10 8 11 10 10 9 10 11 12 11 8 8 10 11 8 6 4 4 3 3 4 3 1 2 3 3 3 2 3 4 4 6 5 4
8 8 9 9 10 10 8 6 12 10 8 3 16 13 10 9 18 14 12 12 18 16 7 7 7 6 6 5 4 4 3 4 2 3 4 3 3 3 3 5 4 5 7
9 11 10 11 11 10 10 8 7 5 14 18 12 14 16 13 22 20 14 17 22 12 6 7 7 7 6 5 4 4 4 4 1 3 4 4 3 2 3 5 4 7 9
13 14 9 9 11 11 11 10 9 8 6 5 15 13 8 20 19 18 16 12 7 4 7 7 6 6 5 5 5 4 5 4 2 2 3 4 4 3 3 4 5 5 8
9 10 9 6 2 8 10 10 8 10 8 9 6 8 12 17 15 11 16 9 10 9 7 7 7 6 5 5 5 6 7 4 5 2 2 3 4 5 5 5 5 7 8
11 18 10 10 11 9 6 6 9 6 10 8 7 6 6 7 7 8 9 9 9 9 8 6 7 6 5 6 5 8 6 5 4 4 3 4 5 5 5 5 5 5 6
11 12 17 12 12 11 10 11 7 5 5 5 8 9 10 7 7 9 9 8 8 8 7 8 7 8 6 6 6 8 6 6 5 4 5 4 4 5 4 5 5 5 6
8 8 11 11 10 10 10 9 8 10 7 6 7 7 14 3 4 5 7 8 6 3 4 3 3 8 9 9 7 9 9 8 7 5 6 5 4 4 5 5 5 5 5
7 7 10 11 11 11 14 13 10 9 9 7 6 7 6 5 5 5 6 6 5 3 4 3 6 4 6 8 8 9 10 9 8 6 7 5 5 5 5 5 7 6 5
11 12 10 8 11 11 8 4 5 6 8 9 10 4 2 3 2 2 4 6 7 6 5 4 4 5 6 5 7 8 8 7 6 7 10 6 6 6 5 5 7 7 6
11 11 11 11 10 8 5 7 9 8 7 8 7 7 7 8 1 2 2 1 3 5 7 3 3 7 9 11 8 13 11 13 10 11 8 9 7 8 6 6 7 6 8
10 9 8 8 8 7 7 9 8 9 8 8 8 7 8 9 9 9 4 4 4 5 4 4 4 7 4 12 10 16 13 12 10 11 10 8 8 8 7 6 9 6 9
Wind_Direction
190 193 202 203 207 211 220 230 250 228 242 252 262 269 282 293 309 305 358 57 98 111 86 73 63 40 31 47 37 37 36 18 62 27 70 111 86 24 347 81 136 118 102
189 191 196 201 202 207 209 216 208 212 211 227 232 250 271 292 289 289 63 94 113 114 91 70 52 41 46 23 56 69 26 24 356 30 73 45 77 6 26 80 65 95 107
185 190 194 198 199 204 203 200 206 201 208 229 220 218 237 268 278 81 96 113 127 94 105 76 75 66 53 52 40 28 3 316 358 58 42 49 24 22 4 53 69 130 58
181 189 195 196 200 204 203 196 194 196 213 219 222 236 240 252 257 108 117 98 88 91 80 74 61 52 35 22 43 21 18 23 20 40 23 32 19 5 1 20 2 87 55
178 189 195 198 195 204 200 199 189 192 209 220 221 207 210 236 170 124 120 121 110 94 85 84 75 80 68 58 56 33 38 31 24 39 30 32 10 359 4 341 329 233 174
178 187 186 194 195 199 199 189 186 193 201 194 214 218 213 92 112 128 128 127 100 103 102 112 109 84 77 87 79 66 54 60 51 38 39 34 15 355 338 323 310 327 30
176 179 182 185 195 193 190 189 177 184 183 202 194 207 112 124 136 138 129 117 115 120 139 161 118 120 126 114 99 94 82 95 103 80 68 44 24 2 338 317 328 349 72
171 179 180 184 193 188 184 182 174 182 186 186 197 188 122 135 148 133 126 121 125 151 165 112 125 127 52 134 153 110 103 62 53 82 87 74 54 10 8 335 331 116 114
181 179 181 182 187 186 185 176 174 176 189 184 183 152 124 144 164 147 130 135 141 135 121 132 126 103 59 22 99 113 130 181 128 103 127 168 73 47 26 11 21 19 13
193 183 184 184 186 187 180 176 175 177 186 181 193 135 139 151 180 150 151 133 136 128 107 103 112 114 74 36 119 96 82 299 106 149 173 245 248 58 44 38 22 33 22
188 182 182 182 183 181 169 169 173 181 176 201 151 129 146 159 170 178 82 141 146 147 143 133 115 116 103 59 54 118 183 311 313 80 88 63 94 86 62 61 46 38 30
178 180 181 179 181 177 169 169 174 182 179 183 131 135 149 161 170 149 177 194 155 149 160 132 128 133 121 95 95 83 11 341 281 80 79 73 31 109 106 83 71 61 51
180 182 176 174 184 168 168 171 175 183 173 154 151 146 157 166 161 149 210 203 152 155 131 135 134 145 142 109 123 163 316 280 149 89 91 58 119 114 131 132 111 100 65
187 179 166 170 183 160 167 173 183 182 187 157 155 156 164 169 163 164 148 117 95 96 117 126 145 157 237 161 164 209 252 69 81 101 114 109 34 136 161 160 151 171 89
191 177 172 175 189 163 162 185 203 185 212 165 172 169 173 182 183 174 164 157 132 131 126 128 143 166 182 183 242 117 124 184 103 92 94 98 83 54 43 78 89 78 89
190 186 183 187 188 173 145 121 50 50 15 120 166 162 165 183 147 155 157 130 126 140 133 155 162 179 182 200 175 177 148 119 127 114 99 76 60 78 81 80 84 87 58
229 198 195 197 182 176 167 169 143 67 72 53 48 139 154 159 156 154 142 144 148 145 152 180 183 189 177 191 163 157 163 134 170 129 131 142 149 121 94 100 87 88 77
340 249 205 214 177 175 176 180 173 152 142 108 50 44 53 151 150 144 131 115 139 191 178 182 196 191 186 163 168 151 116 132 160 205 173 143 132 121 106 98 92 94 106
350 355 313 143 174 195 170 164 187 145 164 114 111 71 66 69 77 116 152 155 169 190 224 188 182 175 179 158 167 134 143 175 156 197 159 125 100 85 83 85 86 100 101
3 16 29 33 26 30 61 79 47 58 103 121 138 124 130 119 150 160 183 174 183 195 214 226 171 166 170 163 151 143 151 158 165 157 182 134 135 133 138 159 144 115 109
4 20 28 30 35 26 42 36 36 85 98 113 114 152 160 163 171 181 196 199 195 196 216 223 170 165 157 160 151 155 150 153 164 190 157 176 180 159 151 116 120 124 130
359 15 40 38 31 30 53 33 27 36 35 93 118 134 146 116 176 191 200 213 229 258 262 238 230 175 172 178 167 162 168 168 176 195 154 176 197 146 136 140 138 122 125
14 15 31 47 41 40 38 27 16 25 15 40 105 127 158 163 183 190 211 221 238 242 297 317 263 176 187 172 175 171 180 182 183 178 161 169 190 162 163 159 141 145 160
32 43 20 24 68 55 43 319 13 36 48 34 24 23 94 111 171 301 246 211 200 235 248 259 286 223 154 209 178 174 182 182 182 183 157 173 188 177 172 166 153 176 152
38 41 34 30 34 51 51 28 14 15 43 60 47 22 4 4 160 205 271 222 200 230 247 255 297 264 177 177 206 186 189 184 191 179 173 170 187 184 192 175 173 167 149
47 46 61 45 25 19 63 50 20 14 15 33 46 42 28 15 352 2 318 208 221 224 241 263 271 285 197 189 190 189 181 185 201 186 177 178 180 176 197 191 183 172 162